Погода в Чернушке

Погода в Чернушке : погода сейчас, прогноз погоды и архив. Всё, что Вы хотите узнать о погоде в Чернушке!

Хотите узнать прогноз погоды в Чернушке? Тогда Вам сюда: Погода в Чернушке

Поиск расширенной информации на нашем сайте:

Другие новости

Новости СМИ2

Главная страница сайта

Новости сайта

03.07.2017

Напоминаем, что на нашем специализированном сайте Метеоцентр.Азия вы можете получить высокодетализированные автоматические прогнозы погоды по пунктам России, СНГ и мира в авиационном формате (включающие направление и скорость ветра, видимость, явления погоды, количество и форму облачности, нижнюю и верхнюю границу облачности).


Погода в Чернушке - сегодня

Время (UTC), дата Ветер
(°,м/с) 
Видим.   Явления Облачность Т
(°С)
Тd
(°С)
f(%) Тe
(°С)
Pmin
(гПа)
dP
(гПа)
Po
(мм)
O2
(г/м3)
Тmin Tmax R s Состояние
почвы
00 03.10.18 170 (Ю) н/о    н/о 
+4.1 +1.3 82 +4  1020.1  -1.3  751  298           
06 03.10.18 190 (Ю) 20000 м    10/10 600 м 
[Sc]
+9.5 +0.2 52 +8  1017.6  -1.1  750  292           
12 03.10.18 190 (Ю) 20000 м    10/10 600 м 
[Sc]
+11.7 +0.8 47 +11  1015.8  -1  749  289           
06 04.10.18 170 (Ю) 10 км  слаб. ливневой дождь  10/10 600 м кучево-дожд. 
[Cb cap]
+9.3 +5.4 77 +8  1006.8  -1.1  742  288           
06 05.10.18 160 (Ю) 20000 м    10/6 600 м верхняя 
[Sc|Ci fib]
+7.9 +7.2 95 +8  1008.2  0.3  743  290           
12 05.10.18 180 (Ю) 20000 м    6/6 600 м 
[Sc]
+11.3 +5.9 69 +12  1007.6  0.1  742  286           
00 06.10.18 310 (СЗ) 20000 м    10/10 600 м 
[Sc]
+4.9 +4.2 95 +4  1009.1  0.5  743  293           
06 06.10.18 320 (СЗ) 20000 м    10/10 600 м кучево-дожд. 
[Cb cap]
+4.7 +1.4 79 +3  1011  0.9  745  295           
18 06.10.18 220 (ЮЗ) 20000 м    10/10 600 м 
[Sc]
+3.9 -0.8 71 +3  1013.7  0.1  747  297           
00 08.10.18 220 (ЮЗ) 20000 м    10/10 600 м 
[Sc]
+9.7 +7 83 +9  1014.5  -0.6  747  290           
06 09.10.18 320 (СЗ) 20000 м    9/9 600 м 
[Sc]
+5.5 -0.4 66 +4  1025.2  2.2  755  298           
12 09.10.18 250 (З) 20000 м    3/3 600 м 
[Sc]
+8 -0.8 54 +8  1027.1  0.7  757  296           
18 09.10.18 тихо ()   20000 м    3/3 2000 м средняя 
[Ac trans]
-1.2 -2.5 91 -1  1028.3  0.3  757  307           
00 10.10.18 190 (Ю) 20000 м    ясно 
-3.8 -4.7 93 -3  1027.6  -0.7  756  310           
06 10.10.18 170 (Ю) 20000 м    10/8 600 м средняя, верхняя 
[Sc|Ac trans|Ci fib]
+1.6 +0.6 93 1025.1  -2  755  302           
12 10.10.18 220 (ЮЗ) 20000 м    10/3 600 м средняя, верхняя 
[Sc|Ac trans|Ci fib]
+7.5 -0.3 58 +6  1018.8  -3.4  751  294           
06 12.10.18 330 (СЗ) 20000 м    9/9 600 м кучево-дожд. 
[Cb cap]
+2.7 -2.6 68 +1  1017.4  0.6  749  299  -0.1         
06 13.10.18 330 (СЗ) 20000 м    10/10 600 м 
[Sc]
+2.6 -2.5 69 +1  1015.9  0.4  748  299           
18 13.10.18 320 (СЗ) 20000 м    9/9 600 м 
[Sc]
+1.6 -4.7 63 1017.7  0.1  749  301           
00 14.10.18 300 (СЗ) 20000 м    3/3 600 м 
[Sc]
-1 -4.2 79 -2  1017.9  0.2  749  304           
06 14.10.18 320 (СЗ) 20000 м    10/10 600 м 
[Sc]
+2 -3.8 65 1018.3  0.5  750  300           
18 14.10.18 320 (СЗ) 20000 м    10/10 600 м 
[Sc]
+0.9 -4.7 66 1021.2  0.4  752  302           
00 15.10.18 320 (СЗ) 20000 м    10/10 600 м 
[Sc]
+0.1 -4.3 72 -1  1022.2  0.3  753  304           
06 15.10.18 330 (СЗ) 20000 м    10/10 600 м 
[Sc]
+1 -3.9 70 1023.5  0.9  754  303  -0.4         
12 15.10.18 220 (ЮЗ) 20000 м    9/9 600 м кучево-дожд. 
[Cb cap]
+2.4 -5.1 58 +3  1023.4  0.2  754  302           
Время (UTC), дата Ветер
(°,м/с) 
Видим.   Явления Облачность Т
(°С)
Тd
(°С)
f(%) Тe
(°С)
Pmin
(гПа)
dP
(гПа)
Po
(мм)
O2
(г/м3)
Тmin Tmax R s Состояние
почвы

Для получения пояснительной информации подведите курсор к названию столбца.

ПОГОДА в Чернушке - архив

Всё, что Вы хотите узнать о погоде в Чернушке - удобно и подробно!

Выберите нужную дату (начиная с 1 января 2015* года) и нажмите кнопку "Найти".
Будут отображены архивные сводки погоды по пункту Чернушка, начиная с указанной даты.


Отображать данные в формате CSV (для использования в таблицах Excel)


Внимание! Наш архив погоды предназначен исключительно для личного некоммерческого использования в познавательных целях. Если Вам необходимы официальные справки о состоянии погоды (для производственных, юридических, коммерческих и т.п. целей), обращайтесь в органы Росгидромета.

*Примечание: данная дата относится к архиву по метеостанциям СССР (Россия, СНГ, Балтия).
Архив по метеостанциям Зарубежной Европы и Азии (кроме Китая) хранится 10 дней, по другим регионам земного шара (Китай, Африка, Америка, Австралия, Океания) - 1 день.

Чернушка - район местоположения метеостанции


Название, широта, долгота, высота метеостанции:
Чернушка 56.5°ш. 56.1°д. 148 м над ур. моря [Российская Федерация]

Дополнительная информация

В oтличие oт бoльшинства пoгoдных сайтoв мы публикуем пoдрoбную метеoинфoрмацию в детальнoм прoфессиoнальнoм фoрмате.

Характеристики температуры и влажнoсти вoздуха измеряются на высoте 2 м в тени вдали oт зданий и деревьев.
Скoрoсть ветра измеряется на высoте 10 м (на урoвне рoста челoвека скoрoсть ветра ниже в 1.5-2 раза). Если метеoстанция нахoдится в гoрoде или в лесу, тo скoрoсть ветра занижена на 2-4 м/с пo сравнению с oткрытым местoм. Скoрoсть ветра над акватoриями крупных рек и oзёр, а также на вершинах хoлмoв на 2-5 м/с выше, чем в oбычных услoвиях.
Атмoсфернoе давление в разных тoчках местнoсти мoжет значительнo oтличаться oт давления на метеoстанции, в зависимoсти oт услoвий рельефа (при пoдъёме на 10 м давление пoнижается примернo на 1 мм рт.ст.).